Tracking 28790 objects as of 19-Apr-2024
HD Live streaming from Space Station
objects crossing your sky now

ORBCOMM FM 10

Track ORBCOMM FM 10 now!
10-day predictions
ORBCOMM FM 10 is classified as:


NORAD ID: 25113
Int'l Code: 1997-084B
Perigee: 753.4 km
Apogee: 762.8 km
Inclination: 45.0 °
Period: 99.8 minutes
Semi major axis: 7129 km
RCS: 0.4291 m2 (medium)
Launch date: December 23, 1997
Source: ORBCOMM (ORB)
Launch site: Pegasus launched from Eastern Range Air Space (ERAS)
Your satellite tracking list
Your tracking list is empty




NASA's NSSDC Master Catalog

Two Line Element Set (TLE):
1 25113U 97084B   24109.44717189  .00004776  00000-0  14759-2 0  9999
2 25113  45.0142 243.2788 0006601 229.3400 130.6877 14.42278371555126
Source of the keplerian elements: AFSPC